Voltar ao catálogo

IRIDIUM 175

AtivoComunicaçõesPO
NORAD 43928·PAYLOAD·🇺🇸 United States

Lançado Jan 11, 2019 de Vandenberg Space Force Base

Loading…

Próximas Passagens (próximas 24 horas)

TLE

AtualizadoSource: CelesTrak SupGP

Época: Sep 14, 2026, 21:25 UTC

1 43928C 19002G   26257.89270833  .00003245  00000+0  95877-3 0  2579
2 43928  86.4467 253.0042 0001139 322.6741   6.1153 14.43642819    17

Acompanhe IRIDIUM 175 em tempo real com AllMySat

Download on the App Store